| time (UTC) | temp F | wind direction | speed MPH | gust MPH | rain 1hr in | rain 24hr in | rain mn in | humidity % | barometer mb |
| 20260831073809 | 60 | 224 | 1.0 | 2.0 | 0.05 | 0.00 | 0.05 | 98 | 1011.2 |
| 20260831073259 | 60 | 212 | 0.0 | 1.0 | 0.05 | 0.00 | 0.05 | 98 | 1011.2 |
| 20260831072749 | 60 | 214 | 1.0 | 1.0 | 0.05 | 0.00 | 0.05 | 98 | 1011.4 |
| 20260831071730 | 60 | 184 | 0.0 | 0.0 | 0.05 | 0.00 | 0.05 | 97 | 1011.6 |
| 20260831071219 | 60 | 191 | 0.0 | 1.0 | 0.05 | 0.00 | 0.05 | 97 | 1011.4 |
| 20260831070709 | 60 | 191 | 0.0 | 1.0 | 0.04 | 0.00 | 0.04 | 96 | 1011.3 |
| 20260831070159 | 61 | 194 | 0.0 | 0.0 | 0.03 | 0.00 | 0.03 | 95 | 1011.0 |
| 20260831065649 | 61 | 174 | 0.0 | 0.0 | 0.03 | 0.00 | 0.03 | 94 | 1010.7 |
| 20260831065139 | 61 | 174 | 0.0 | 0.0 | 0.02 | 0.00 | 0.02 | 93 | 1010.9 |
| 20260831064629 | 61 | 174 | 0.0 | 0.0 | 0.01 | 0.00 | 0.01 | 92 | 1011.1 |
| 20260831062549 | 61 | 174 | 0.0 | 0.0 | 0.00 | 0.00 | 0.00 | 90 | 1010.9 |
| 20260831061532 | 61 | 174 | 0.0 | 0.0 | 0.00 | 0.00 | 0.00 | 91 | 1010.7 |
| 20260831061019 | 61 | 174 | 0.0 | 0.0 | 0.00 | 0.00 | 0.00 | 91 | 1010.7 |
| 20260831060509 | 61 | 174 | 0.0 | 0.0 | 0.00 | 0.00 | 0.00 | 92 | 1010.9 |
| 20260831055450 | 61 | 174 | 0.0 | 0.0 | 0.00 | 0.00 | 0.00 | 92 | 1010.9 |
| 20260831055017 | 60 | 174 | 0.0 | 0.0 | 0.00 | 0.00 | 0.00 | 93 | 1010.9 |
| 20260831053919 | 60 | 174 | 0.0 | 0.0 | 0.00 | 0.00 | 0.00 | 94 | 1010.6 |
| 20260831053409 | 60 | 174 | 0.0 | 1.0 | 0.00 | 0.00 | 0.00 | 93 | 1010.7 |
| 20260831051838 | 59 | 174 | 0.0 | 0.0 | 0.00 | 0.00 | 0.00 | 95 | 1011.2 |
| 20260831051328 | 59 | 174 | 0.0 | 0.0 | 0.00 | 0.00 | 0.00 | 95 | 1010.8 |
| 20260831050818 | 59 | 174 | 0.0 | 0.0 | 0.00 | 0.00 | 0.00 | 95 | 1010.8 |
| 20260831050309 | 59 | 174 | 0.0 | 0.0 | 0.00 | 0.00 | 0.00 | 95 | 1010.9 |
| 20260831045758 | 59 | 174 | 0.0 | 0.0 | 0.00 | 0.00 | 0.00 | 95 | 1010.9 |
| 20260831045248 | 59 | 174 | 0.0 | 0.0 | 0.00 | 0.00 | 0.00 | 94 | 1011.0 |
| 20260831043718 | 59 | 174 | 0.0 | 0.0 | 0.00 | 0.00 | 0.00 | 94 | 1011.1 |
| 20260831042658 | 58 | 174 | 0.0 | 0.0 | 0.00 | 0.00 | 0.00 | 94 | 1011.0 |
| 20260831042148 | 58 | 174 | 0.0 | 0.0 | 0.00 | 0.00 | 0.00 | 94 | 1011.0 |
| 20260831041128 | 58 | 174 | 0.0 | 0.0 | 0.00 | 0.00 | 0.00 | 94 | 1010.9 |
| 20260831040618 | 58 | 174 | 0.0 | 0.0 | 0.00 | 0.00 | 0.00 | 94 | 1010.9 |
| 20260831040231 | 58 | 174 | 0.0 | 0.0 | 0.00 | 0.00 | 0.00 | 94 | 1011.2 |
| 20260831035636 | 58 | 174 | 0.0 | 0.0 | 0.00 | 0.00 | 0.00 | 94 | 1011.1 |
| 20260831035048 | 58 | 174 | 0.0 | 0.0 | 0.00 | 0.00 | 0.00 | 94 | 1011.2 |
| 20260831033008 | 58 | 174 | 0.0 | 0.0 | 0.00 | 0.00 | 0.00 | 94 | 1011.6 |
| 20260831023828 | 57 | 174 | 0.0 | 0.0 | 0.00 | 0.00 | 0.00 | 95 | 1011.5 |
| 20260831022808 | 57 | 174 | 0.0 | 0.0 | 0.00 | 0.00 | 0.00 | 94 | 1011.5 |
| 20260830234757 | 62 | 174 | 0.0 | 0.0 | 0.00 | 0.00 | 0.00 | 86 | 1012.2 |
| 20260830234327 | 62 | 174 | 0.0 | 0.0 | 0.00 | 0.00 | 0.00 | 86 | 1012.4 |
| 20260830233228 | 62 | 174 | 0.0 | 0.0 | 0.00 | 0.00 | 0.00 | 85 | 1012.2 |
| 20260830232207 | 63 | 174 | 0.0 | 0.0 | 0.00 | 0.00 | 0.00 | 85 | 1012.3 |
| 20260830231657 | 63 | 174 | 0.0 | 0.0 | 0.00 | 0.00 | 0.00 | 85 | 1012.3 |
| 20260830230637 | 63 | 174 | 0.0 | 0.0 | 0.00 | 0.00 | 0.00 | 84 | 1012.6 |
| 20260830230127 | 63 | 174 | 0.0 | 0.0 | 0.00 | 0.00 | 0.00 | 85 | 1012.2 |
| 20260830225655 | 63 | 174 | 0.0 | 0.0 | 0.00 | 0.00 | 0.00 | 86 | 1012.6 |
| 20260830223537 | 63 | 174 | 0.0 | 0.0 | 0.00 | 0.00 | 0.00 | 85 | 1012.5 |
| 20260830223027 | 63 | 174 | 0.0 | 0.0 | 0.00 | 0.00 | 0.00 | 85 | 1012.4 |
| 20260830220947 | 64 | 174 | 0.0 | 0.0 | 0.00 | 0.00 | 0.00 | 83 | 1012.5 |
| 20260830215927 | 64 | 173 | 0.0 | 0.0 | 0.00 | 0.00 | 0.01 | 82 | 1012.3 |
| 20260830214947 | 64 | 173 | 0.0 | 0.0 | 0.00 | 0.00 | 0.01 | 82 | 1012.4 |
| 20260830213847 | 65 | 173 | 0.0 | 0.0 | 0.00 | 0.00 | 0.01 | 80 | 1012.4 |
| 20260830213337 | 65 | 173 | 0.0 | 0.0 | 0.00 | 0.00 | 0.01 | 80 | 1012.3 |
| 20260830212827 | 65 | 173 | 0.0 | 0.0 | 0.00 | 0.00 | 0.01 | 79 | 1012.2 |
| 20260830212355 | 65 | 173 | 0.0 | 0.0 | 0.00 | 0.00 | 0.01 | 79 | 1012.6 |
| 20260830211808 | 66 | 173 | 0.0 | 0.0 | 0.00 | 0.00 | 0.01 | 79 | 1012.4 |
| 20260830210747 | 66 | 173 | 0.0 | 0.0 | 0.00 | 0.00 | 0.01 | 79 | 1012.4 |
| 20260830210237 | 66 | 173 | 0.0 | 0.0 | 0.00 | 0.00 | 0.01 | 79 | 1012.4 |
| 20260830205727 | 65 | 173 | 0.0 | 0.0 | 0.00 | 0.00 | 0.01 | 78 | 1012.4 |
| 20260830205217 | 65 | 173 | 0.0 | 0.0 | 0.00 | 0.00 | 0.01 | 79 | 1012.5 |
| 20260830204708 | 66 | 173 | 0.0 | 0.0 | 0.00 | 0.00 | 0.01 | 79 | 1012.3 |
| 20260830201607 | 66 | 173 | 0.0 | 0.0 | 0.00 | 0.00 | 0.01 | 78 | 1012.3 |
| 20260830200547 | 66 | 173 | 0.0 | 0.0 | 0.00 | 0.00 | 0.01 | 77 | 1012.3 |
| 20260830195527 | 66 | 173 | 0.0 | 0.0 | 0.00 | 0.00 | 0.01 | 76 | 1012.3 |
| 20260830195055 | 67 | 173 | 0.0 | 0.0 | 0.00 | 0.00 | 0.01 | 75 | 1012.5 |
| 20260830193957 | 68 | 173 | 0.0 | 0.0 | 0.00 | 0.00 | 0.01 | 73 | 1012.2 |
| 20260830193447 | 68 | 171 | 0.0 | 0.0 | 0.00 | 0.00 | 0.01 | 73 | 1012.3 |
| 20260830192937 | 68 | 184 | 0.0 | 0.0 | 0.00 | 0.00 | 0.01 | 72 | 1012.4 |
| 20260830191917 | 69 | 165 | 0.0 | 1.0 | 0.00 | 0.00 | 0.01 | 70 | 1012.4 |
| 20260830185838 | 70 | 164 | 0.0 | 1.0 | 0.00 | 0.00 | 0.01 | 69 | 1012.3 |
| 20260830184306 | 70 | 181 | 0.0 | 1.0 | 0.00 | 0.00 | 0.01 | 67 | 1012.1 |
| 20260830183757 | 70 | 179 | 0.0 | 2.0 | 0.00 | 0.00 | 0.01 | 67 | 1011.9 |
| 20260830183247 | 71 | 174 | 0.0 | 1.0 | 0.00 | 0.00 | 0.01 | 67 | 1012.1 |
| 20260830182736 | 71 | 182 | 0.0 | 1.0 | 0.00 | 0.00 | 0.01 | 66 | 1012.0 |
| 20260830182226 | 71 | 194 | 1.0 | 2.0 | 0.00 | 0.00 | 0.01 | 65 | 1011.7 |
| 20260830181756 | 71 | 97 | 1.0 | 2.0 | 0.00 | 0.00 | 0.01 | 65 | 1011.7 |
| 20260830180819 | 72 | 195 | 0.0 | 1.0 | 0.00 | 0.00 | 0.01 | 64 | 1011.7 |
| 20260830180147 | 72 | 119 | 2.0 | 3.0 | 0.00 | 0.00 | 0.01 | 63 | 1011.8 |
| 20260830174616 | 72 | 185 | 0.0 | 2.0 | 0.00 | 0.00 | 0.01 | 63 | 1011.5 |
| 20260830173556 | 72 | 100 | 2.0 | 2.0 | 0.00 | 0.00 | 0.01 | 62 | 1011.4 |
| 20260830172536 | 73 | 115 | 1.0 | 3.0 | 0.00 | 0.00 | 0.01 | 60 | 1011.4 |
| 20260830172026 | 73 | 171 | 0.0 | 2.0 | 0.00 | 0.00 | 0.01 | 60 | 1011.2 |
| 20260830171006 | 74 | 175 | 1.0 | 2.0 | 0.00 | 0.00 | 0.01 | 59 | 1011.2 |
| 20260830170458 | 74 | 177 | 0.0 | 3.0 | 0.00 | 0.00 | 0.01 | 59 | 1011.3 |
| 20260830165946 | 74 | 185 | 1.0 | 2.0 | 0.00 | 0.00 | 0.01 | 58 | 1011.4 |
| 20260830165436 | 74 | 208 | 0.0 | 2.0 | 0.00 | 0.00 | 0.01 | 58 | 1011.1 |
| 20260830163906 | 75 | 12 | 1.0 | 3.0 | 0.00 | 0.00 | 0.01 | 57 | 1010.9 |
| 20260830163358 | 75 | 111 | 2.0 | 2.0 | 0.00 | 0.00 | 0.01 | 57 | 1010.9 |
| 20260830162924 | 75 | 75 | 3.0 | 4.0 | 0.00 | 0.00 | 0.01 | 56 | 1011.0 |
| 20260830161826 | 76 | 110 | 3.0 | 7.0 | 0.00 | 0.00 | 0.01 | 55 | 1011.0 |
| 20260830161354 | 77 | 197 | 1.0 | 4.0 | 0.00 | 0.00 | 0.01 | 54 | 1010.8 |
| 20260830160806 | 77 | 229 | 1.0 | 4.0 | 0.00 | 0.00 | 0.01 | 54 | 1010.9 |
| 20260830155746 | 77 | 73 | 1.0 | 3.0 | 0.00 | 0.00 | 0.01 | 54 | 1010.7 |
| 20260830154728 | 78 | 166 | 1.0 | 3.0 | 0.00 | 0.00 | 0.01 | 54 | 1010.6 |
| 20260830154216 | 78 | 146 | 1.0 | 2.0 | 0.00 | 0.00 | 0.01 | 54 | 1010.7 |
| 20260830153706 | 78 | 250 | 1.0 | 6.0 | 0.00 | 0.00 | 0.01 | 53 | 1010.7 |
| 20260830153156 | 79 | 265 | 2.0 | 9.0 | 0.00 | 0.00 | 0.01 | 52 | 1010.7 |
| 20260830152724 | 79 | 246 | 2.0 | 3.0 | 0.00 | 0.00 | 0.01 | 52 | 1010.6 |
| 20260830151749 | 80 | 192 | 1.0 | 3.0 | 0.00 | 0.00 | 0.01 | 52 | 1010.7 |
| 20260830150644 | 80 | 149 | 2.0 | 6.0 | 0.00 | 0.00 | 0.01 | 49 | 1010.5 |
| 20260830150056 | 79 | 138 | 3.0 | 7.0 | 0.00 | 0.00 | 0.01 | 48 | 1010.4 |
| 20260830145546 | 79 | 7 | 1.0 | 4.0 | 0.00 | 0.00 | 0.01 | 48 | 1010.3 |
| 20260830145036 | 79 | 123 | 2.0 | 6.0 | 0.00 | 0.00 | 0.01 | 49 | 1010.6 |
| 20260830144526 | 79 | 148 | 2.0 | 3.0 | 0.00 | 0.00 | 0.01 | 49 | 1010.6 |
| 20260830143507 | 79 | 197 | 1.0 | 6.0 | 0.00 | 0.00 | 0.01 | 49 | 1010.2 |
| 20260830142957 | 80 | 283 | 3.0 | 4.0 | 0.00 | 0.00 | 0.01 | 48 | 1010.5 |
| 20260830142446 | 80 | 108 | 3.0 | 8.0 | 0.00 | 0.00 | 0.01 | 49 | 1010.4 |
| 20260830142014 | 80 | 131 | 2.0 | 7.0 | 0.00 | 0.00 | 0.01 | 49 | 1010.3 |
| 20260830141504 | 79 | 110 | 1.0 | 4.0 | 0.00 | 0.00 | 0.01 | 50 | 1010.4 |
| 20260830140406 | 80 | 239 | 2.0 | 7.0 | 0.00 | 0.00 | 0.01 | 49 | 1010.4 |
| 20260830135856 | 81 | 12 | 2.0 | 3.0 | 0.00 | 0.00 | 0.01 | 48 | 1010.3 |
| 20260830135346 | 80 | 148 | 2.0 | 3.0 | 0.00 | 0.00 | 0.01 | 50 | 1010.1 |
| 20260830134326 | 80 | 136 | 4.0 | 7.0 | 0.00 | 0.00 | 0.01 | 50 | 1010.1 |
| 20260830133817 | 80 | 171 | 2.0 | 6.0 | 0.00 | 0.00 | 0.01 | 49 | 1010.0 |
| 20260830133306 | 80 | 14 | 3.0 | 9.0 | 0.00 | 0.00 | 0.01 | 50 | 1010.2 |
| 20260830132755 | 80 | 78 | 2.0 | 3.0 | 0.00 | 0.00 | 0.01 | 49 | 1010.1 |
| 20260830132246 | 79 | 233 | 2.0 | 3.0 | 0.00 | 0.00 | 0.01 | 51 | 1009.9 |
| 20260830130715 | 80 | 102 | 2.0 | 8.0 | 0.00 | 0.00 | 0.01 | 54 | 1009.8 |
| 20260830125655 | 80 | 188 | 1.0 | 3.0 | 0.00 | 0.00 | 0.01 | 55 | 1009.8 |
| 20260830125145 | 78 | 93 | 1.0 | 2.0 | 0.00 | 0.00 | 0.01 | 56 | 1009.7 |
| 20260830123615 | 81 | 189 | 0.0 | 7.0 | 0.00 | 0.00 | 0.01 | 54 | 1009.7 |
| 20260830123105 | 81 | 243 | 2.0 | 7.0 | 0.00 | 0.00 | 0.01 | 54 | 1009.7 |
| 20260830122045 | 80 | 42 | 1.0 | 2.0 | 0.00 | 0.00 | 0.01 | 56 | 1009.7 |
| 20260830121535 | 81 | 264 | 3.0 | 6.0 | 0.00 | 0.00 | 0.01 | 55 | 1009.8 |
| 20260830121025 | 80 | 133 | 1.0 | 3.0 | 0.00 | 0.00 | 0.01 | 55 | 1009.7 |
| 20260830115535 | 80 | 168 | 1.0 | 2.0 | 0.00 | 0.00 | 0.01 | 58 | 1009.4 |
| 20260830114945 | 79 | 182 | 1.0 | 2.0 | 0.00 | 0.00 | 0.01 | 58 | 1009.3 |
| 20260830114513 | 79 | 101 | 3.0 | 6.0 | 0.00 | 0.00 | 0.01 | 57 | 1009.6 |
| 20260830113925 | 78 | 7 | 2.0 | 4.0 | 0.00 | 0.00 | 0.01 | 58 | 1009.5 |
| 20260830113415 | 78 | 6 | 3.0 | 4.0 | 0.00 | 0.00 | 0.01 | 58 | 1009.6 |
| 20260830112905 | 79 | 241 | 2.0 | 4.0 | 0.00 | 0.00 | 0.01 | 56 | 1009.5 |
| 20260830112355 | 78 | 113 | 2.0 | 9.0 | 0.00 | 0.00 | 0.01 | 57 | 1009.4 |
| 20260830111335 | 78 | 75 | 3.0 | 6.0 | 0.00 | 0.00 | 0.01 | 57 | 1009.7 |
| 20260830105805 | 80 | 214 | 1.0 | 6.0 | 0.00 | 0.00 | 0.01 | 56 | 1009.3 |
| 20260830105255 | 80 | 114 | 3.0 | 6.0 | 0.00 | 0.00 | 0.01 | 56 | 1009.3 |
| 20260830104745 | 81 | 174 | 2.0 | 10.0 | 0.00 | 0.00 | 0.01 | 54 | 1009.3 |
| 20260830104236 | 81 | 168 | 3.0 | 6.0 | 0.00 | 0.00 | 0.01 | 54 | 1009.5 |
| 20260830102705 | 78 | 184 | 0.0 | 10.0 | 0.00 | 0.00 | 0.01 | 58 | 1009.6 |
| 20260830102235 | 78 | 286 | 3.0 | 7.0 | 0.00 | 0.00 | 0.01 | 58 | 1009.4 |
| 20260830101645 | 78 | 225 | 4.0 | 7.0 | 0.00 | 0.00 | 0.01 | 58 | 1009.5 |
| 20260830101135 | 80 | 214 | 2.0 | 4.0 | 0.00 | 0.00 | 0.01 | 57 | 1009.7 |
| 20260830100115 | 78 | 122 | 3.0 | 4.0 | 0.00 | 0.00 | 0.01 | 59 | 1009.4 |
| 20260830095605 | 78 | 198 | 2.0 | 3.0 | 0.00 | 0.00 | 0.01 | 60 | 1009.5 |
| 20260830095055 | 78 | 217 | 2.0 | 2.0 | 0.00 | 0.00 | 0.01 | 60 | 1009.6 |
| 20260830094035 | 79 | 211 | 2.0 | 4.0 | 0.00 | 0.00 | 0.01 | 60 | 1009.5 |
| 20260830093527 | 78 | 198 | 1.0 | 3.0 | 0.00 | 0.00 | 0.01 | 60 | 1009.7 |
| 20260830092506 | 77 | 35 | 2.0 | 4.0 | 0.00 | 0.00 | 0.01 | 62 | 1009.6 |
| 20260830091955 | 77 | 186 | 2.0 | 6.0 | 0.00 | 0.00 | 0.01 | 62 | 1009.9 |
| 20260830090935 | 76 | 182 | 2.0 | 6.0 | 0.00 | 0.00 | 0.01 | 63 | 1009.7 |
| 20260830090505 | 76 | 53 | 2.0 | 4.0 | 0.00 | 0.00 | 0.01 | 63 | 1009.8 |
| 20260830085915 | 76 | 254 | 0.0 | 6.0 | 0.00 | 0.00 | 0.01 | 63 | 1009.5 |
| 20260830084933 | 75 | 138 | 1.0 | 9.0 | 0.00 | 0.00 | 0.01 | 65 | 1009.6 |
| 20260830084345 | 75 | 68 | 2.0 | 6.0 | 0.00 | 0.00 | 0.01 | 65 | 1009.7 |
| 20260830083325 | 77 | 145 | 2.0 | 6.0 | 0.00 | 0.00 | 0.01 | 62 | 1009.5 |
| 20260830082815 | 77 | 213 | 2.0 | 8.0 | 0.00 | 0.00 | 0.01 | 63 | 1009.5 |
| 20260830082307 | 76 | 181 | 2.0 | 3.0 | 0.00 | 0.00 | 0.01 | 64 | 1009.5 |
| 20260830081833 | 76 | 303 | 1.0 | 4.0 | 0.00 | 0.00 | 0.01 | 65 | 1009.6 |
| 20260830080735 | 75 | 80 | 2.0 | 8.0 | 0.00 | 0.00 | 0.01 | 66 | 1009.4 |
| 20260830080225 | 76 | 130 | 2.0 | 4.0 | 0.00 | 0.00 | 0.01 | 64 | 1009.5 |
| 20260830075753 | 75 | 159 | 1.0 | 3.0 | 0.00 | 0.00 | 0.01 | 65 | 1009.4 |
| 20260830075242 | 75 | 165 | 2.0 | 6.0 | 0.00 | 0.00 | 0.01 | 65 | 1009.7 |
| 20260830074733 | 76 | 258 | 2.0 | 2.0 | 0.00 | 0.00 | 0.01 | 65 | 1009.5 |
| 20260830074223 | 75 | 212 | 1.0 | 2.0 | 0.00 | 0.00 | 0.01 | 66 | 1009.6 |